Theta_e
355 352 353 351 351 349 347 342 317 326 324 314 316 321 319 333 334 329 328 334 328 335 339 341 341 336 336 333 334 335 336 330 336 314 314 336 350 352 354 356 357 357 357 357 357 358 360 362 364 365 366 366 366 366 367 367 367 367 367 367 366 366 366 366 366 365 364 364 364 363 363 363 364 364 363 362 362 361 362 362 362 362 363 363 362 362 362 363 362 362 362 362 362 361 362 361 361
352 351 351 351 347 347 335 341 321 320 319 315 316 326 324 331 331 326 328 330 334 335 339 340 340 342 342 338 337 337 334 337 339 337 342 348 353 352 355 356 357 356 357 357 357 358 359 362 365 365 366 365 366 367 366 367 367 367 367 366 367 366 366 365 365 364 364 363 363 363 362 362 363 363 363 362 362 362 362 361 362 363 363 362 362 362 362 362 362 362 361 361 362 362 361 362 362
350 348 345 348 347 343 344 340 316 318 313 310 317 322 333 327 327 330 332 334 337 338 341 338 340 340 337 337 331 332 326 340 341 343 342 350 344 348 354 357 357 357 357 357 357 357 359 362 365 365 365 367 367 366 365 366 366 367 367 367 366 365 364 364 363 363 363 363 363 363 362 363 362 363 362 362 362 362 362 361 361 362 362 362 362 361 363 361 362 362 362 361 361 361 362 361 361
348 345 342 344 337 343 329 327 321 316 313 314 316 326 327 327 329 334 338 338 338 338 339 335 336 344 335 329 331 337 335 336 342 342 341 344 345 351 354 356 358 357 357 358 359 360 361 363 365 366 366 366 365 366 366 366 366 367 366 365 364 364 364 364 364 364 363 363 363 363 362 363 363 363 363 362 362 363 362 362 361 361 362 362 362 362 362 362 361 362 362 362 362 362 361 361 360
353 356 349 340 334 328 328 323 321 322 313 317 316 330 330 331 332 335 338 340 340 337 337 335 334 340 338 334 337 329 332 341 342 346 344 348 352 353 354 356 356 356 356 357 359 360 361 365 366 366 366 366 366 367 367 366 366 365 365 364 364 364 364 364 364 364 363 363 362 362 362 362 363 362 363 363 363 362 362 363 362 362 362 363 362 362 362 361 362 362 361 362 362 361 361 361 360
354 352 355 347 332 345 332 319 318 318 322 328 322 326 334 333 332 337 335 336 341 338 339 335 333 333 332 335 339 334 341 333 343 345 347 347 352 354 354 355 354 355 356 357 360 360 362 367 367 366 366 366 367 367 367 366 366 364 364 364 365 365 365 364 363 363 363 363 364 363 364 363 363 363 363 362 363 362 361 362 362 362 363 362 362 362 361 361 361 361 361 362 362 362 361 361 361
347 349 346 343 341 340 320 318 317 320 325 332 330 332 334 334 335 336 334 335 338 341 342 334 336 333 329 335 338 342 346 347 344 345 349 351 353 353 354 353 354 354 356 359 360 361 362 366 366 366 366 366 368 367 366 365 364 364 365 365 365 364 364 364 363 363 364 364 362 364 363 363 363 363 363 363 362 362 362 362 363 362 362 362 362 362 362 362 362 362 361 361 362 361 361 361 359
356 342 341 331 326 328 320 321 320 324 328 331 332 336 335 335 338 336 333 332 330 334 337 336 339 333 330 340 329 341 347 348 348 350 351 352 352 352 353 353 352 354 357 359 360 361 367 367 366 366 366 366 366 366 365 365 365 366 366 366 365 364 364 364 364 364 364 363 363 362 363 363 363 364 363 363 362 363 362 362 362 361 361 361 362 362 362 361 361 361 362 362 362 362 361 361 360
354 342 347 333 321 326 321 320 323 332 331 334 335 340 340 340 340 333 329 334 335 338 333 335 335 328 330 333 332 340 344 348 350 352 351 351 350 352 352 351 351 353 357 359 361 362 363 366 366 366 366 366 366 366 366 365 366 366 365 365 365 364 364 364 364 363 364 363 363 363 364 364 363 363 363 363 363 363 363 362 362 361 362 362 361 362 361 361 361 361 361 362 362 362 362 361 360
344 345 329 327 327 316 320 322 320 327 328 335 334 336 338 338 338 338 332 334 333 337 334 337 336 330 334 330 334 339 342 348 349 348 349 350 350 351 351 351 352 354 357 360 361 362 362 367 366 366 366 366 365 366 366 366 366 365 365 365 364 364 364 364 364 363 364 364 364 364 364 363 363 363 363 362 363 363 363 362 362 361 361 361 362 361 360 361 361 361 361 361 362 362 362 361 361
334 341 342 324 319 316 316 318 324 330 331 335 338 337 340 340 338 334 336 336 336 333 335 337 332 332 334 333 335 345 347 347 346 345 348 349 350 350 349 350 352 356 356 359 360 361 361 362 367 366 366 365 366 366 367 366 366 366 366 365 365 365 365 364 364 363 364 365 365 364 364 363 363 363 363 363 363 363 363 363 362 362 362 362 361 360 360 359 359 360 361 361 362 362 362 361 361
328 330 333 319 318 317 321 320 325 331 332 333 333 340 342 340 338 334 335 332 335 335 333 337 331 337 331 332 333 341 345 344 345 347 348 349 349 349 349 351 353 354 355 356 360 360 361 362 362 366 366 367 367 366 367 366 366 366 365 365 366 365 365 364 364 364 364 365 365 364 364 363 364 364 363 363 364 363 363 363 362 362 362 362 361 360 359 360 360 360 362 363 362 362 361 361 362
332 333 326 321 320 323 325 324 327 326 330 331 334 339 344 339 335 335 335 337 337 333 334 339 339 338 328 331 337 341 341 344 346 347 347 347 347 349 350 349 349 351 354 357 358 359 361 361 362 362 364 365 363 365 366 366 366 366 366 365 365 365 365 364 364 364 365 365 364 364 364 364 364 364 364 363 363 363 363 363 363 362 363 362 361 360 359 359 360 362 363 363 362 362 361 360 362
331 334 330 317 327 326 323 326 328 324 325 331 337 340 342 338 338 341 339 333 335 335 338 341 340 338 332 334 334 335 340 345 347 347 348 348 348 348 347 347 350 353 355 356 357 359 359 360 361 361 363 362 362 363 366 367 366 366 365 365 366 366 365 365 364 364 364 364 365 365 364 364 364 364 364 364 364 364 363 363 363 363 363 362 361 360 360 360 361 362 363 362 362 362 362 361 361
332 338 329 324 320 324 325 322 323 322 324 332 336 338 338 340 341 340 338 334 335 344 342 344 341 335 326 330 329 335 340 345 348 349 348 348 348 346 345 349 352 353 354 356 357 357 358 359 360 362 362 362 362 361 362 364 367 366 366 366 366 366 365 365 364 364 364 365 365 363 364 365 365 365 365 364 364 365 364 364 364 363 363 362 361 361 361 361 361 362 363 363 363 363 362 362 361
333 334 328 320 316 320 321 320 322 324 325 336 337 341 336 339 343 339 340 344 337 346 342 334 343 340 336 334 335 340 344 346 348 348 347 346 346 345 346 347 348 351 354 356 356 357 357 358 360 360 361 361 361 362 362 362 365 366 366 366 366 366 366 365 365 364 364 364 364 363 364 364 364 362 364 362 364 365 365 363 364 364 364 363 362 362 362 361 362 362 363 363 363 362 362 362 362
335 333 318 318 314 320 321 322 323 318 330 336 339 338 333 334 342 344 350 345 336 337 340 340 338 342 338 339 342 344 345 347 348 346 344 344 343 342 344 344 346 348 352 353 354 355 357 358 359 359 360 360 361 361 361 362 364 366 366 366 366 367 365 365 365 365 365 364 363 364 365 362 360 359 360 360 364 363 364 365 365 365 363 363 363 362 362 362 362 362 363 363 362 362 362 362 361
330 320 318 315 318 319 326 324 325 330 329 334 337 337 334 333 337 340 344 339 341 341 337 340 342 341 342 343 345 345 345 345 345 343 342 341 341 340 340 342 344 344 347 349 352 355 357 358 358 359 359 359 360 361 362 362 362 364 362 362 363 363 364 364 363 362 364 360 365 363 361 364 358 358 360 364 362 362 362 365 364 364 363 363 362 362 362 363 364 362 363 362 363 362 362 359 361
323 321 318 315 321 324 331 331 330 330 330 334 338 338 336 334 337 341 335 333 334 335 336 337 336 339 341 343 344 343 344 343 342 342 341 339 339 338 339 341 342 343 344 347 351 355 355 356 357 357 357 358 359 360 361 362 361 361 361 361 362 365 364 364 363 363 360 360 359 358 361 361 360 362 361 363 364 363 363 365 365 365 364 364 363 362 363 363 362 363 363 363 363 363 362 362 359
326 320 314 317 326 330 334 334 336 334 335 336 337 336 335 337 336 343 336 332 336 335 331 333 334 333 337 340 342 342 342 341 341 341 340 340 340 339 339 339 340 342 344 346 350 354 354 355 355 356 356 357 357 357 360 360 360 360 360 360 360 360 361 361 360 361 361 361 361 359 359 361 360 360 364 365 365 361 360 363 365 365 365 364 364 364 362 361 360 361 362 362 365 365 360 359 358
326 322 317 318 327 326 334 335 335 337 338 337 337 339 337 338 340 341 336 333 332 337 336 334 333 334 335 338 340 341 340 340 340 341 340 340 340 341 340 341 341 343 345 347 350 351 353 354 354 354 356 356 356 357 358 357 358 359 359 359 359 359 358 358 359 360 361 360 360 361 360 361 361 360 358 358 357 358 358 358 360 359 360 358 364 358 360 361 362 359 360 362 359 359 358 357 356
324 323 325 325 326 324 336 335 336 335 339 338 337 334 334 343 338 338 337 331 328 336 338 341 337 338 336 336 338 340 340 339 340 339 339 339 339 339 341 341 342 344 345 345 348 350 352 353 354 353 355 355 356 356 357 359 358 357 357 358 358 358 358 357 359 358 359 359 358 359 361 359 360 359 359 359 361 360 360 359 361 359 358 359 365 359 358 356 356 355 359 359 358 358 356 357 355
315 321 323 323 322 327 336 333 334 336 336 336 332 335 340 339 336 339 338 337 339 345 339 340 339 340 340 340 339 339 339 339 339 339 339 339 340 340 341 341 340 341 344 345 349 351 353 353 353 354 354 354 355 356 357 359 356 357 357 357 357 357 357 357 359 358 360 360 357 358 359 357 358 359 359 359 358 359 358 357 358 360 360 359 363 359 357 358 357 355 358 358 357 358 356 355 355
318 315 321 322 324 328 334 334 335 335 335 337 338 338 335 336 330 338 336 341 342 347 345 342 341 341 341 339 339 339 340 340 339 341 341 340 341 341 341 340 341 343 344 346 348 350 353 353 354 354 353 354 353 356 357 357 357 357 357 362 359 359 358 357 359 360 363 360 358 358 364 357 358 358 359 357 357 357 356 357 359 359 359 358 361 360 355 355 356 357 359 357 356 354 351 353 353
317 315 319 320 320 326 333 334 334 335 336 338 337 333 335 338 335 338 338 337 340 345 348 341 341 340 340 339 338 339 340 341 340 342 342 342 342 343 342 341 341 343 343 345 347 349 350 353 354 354 354 355 354 357 357 357 357 357 358 357 356 363 357 357 359 359 359 359 358 359 366 357 358 358 357 355 355 355 356 357 358 355 356 356 357 357 356 356 357 358 359 359 356 352 351 348 351
316 317 320 320 320 321 328 331 335 335 336 336 334 333 335 338 340 335 336 342 341 347 345 341 341 339 339 339 339 338 340 340 342 342 342 343 342 341 341 341 341 342 344 346 347 348 349 353 353 354 356 356 356 355 355 356 356 356 357 356 357 361 356 357 358 356 356 355 355 359 362 357 357 358 356 354 354 354 354 356 359 358 358 362 361 357 358 357 356 358 359 359 357 352 352 351 351
316 316 319 318 319 319 321 326 334 333 334 336 332 333 335 339 336 329 338 342 341 344 340 340 340 338 339 339 339 339 340 339 341 343 342 342 341 340 340 341 340 343 345 345 346 347 351 352 352 356 357 358 356 354 353 353 355 356 357 355 357 357 357 358 357 355 356 354 354 358 358 359 353 356 355 352 353 353 352 354 353 356 356 359 358 361 359 360 361 359 357 356 360 359 357 358 358
314 313 312 312 316 318 319 319 319 333 331 336 335 332 334 336 335 331 335 340 341 340 337 338 338 338 339 339 339 340 340 341 341 342 340 339 339 340 340 339 339 343 344 344 346 347 350 350 352 356 357 356 356 354 354 353 355 356 356 354 356 357 357 354 354 352 355 356 359 359 359 358 363 357 353 352 353 352 351 350 353 355 357 357 356 359 359 362 364 362 364 363 360 363 357 356 356
312 311 306 309 311 311 316 316 317 319 329 337 337 329 327 330 330 335 337 340 338 338 336 337 337 338 339 339 339 339 339 341 341 340 341 341 341 342 340 341 341 342 344 345 345 348 348 350 353 355 356 356 355 354 353 353 356 357 356 356 357 358 358 353 350 351 357 360 363 364 363 365 367 358 358 358 360 353 351 350 352 357 354 360 359 363 363 361 360 359 359 363 361 361 356 353 356
310 308 306 306 306 305 312 316 317 316 331 336 333 314 319 326 331 334 338 337 337 335 335 335 336 337 338 339 339 339 340 340 340 339 341 340 341 342 341 341 342 342 342 343 344 346 348 351 355 355 357 356 355 355 355 353 355 356 357 356 359 357 355 355 356 357 359 361 362 363 365 366 365 365 363 361 359 356 352 351 353 355 359 363 365 363 359 360 359 359 357 357 362 360 356 352 352
301 306 307 299 300 300 310 312 314 313 332 334 329 314 318 325 331 335 337 337 335 333 334 333 334 335 336 338 339 339 340 341 340 341 342 342 342 342 342 342 342 342 342 342 342 344 347 352 354 354 357 356 358 356 356 354 355 356 355 354 355 357 353 353 357 357 358 360 361 363 365 368 366 367 366 362 360 358 358 357 358 358 359 364 362 362 360 360 359 358 360 355 355 357 355 355 354
306 300 296 299 298 300 308 313 313 311 326 329 326 315 317 325 330 336 338 337 336 333 333 334 334 335 336 337 338 339 340 342 342 342 342 343 341 341 342 342 343 341 341 341 342 344 345 350 352 353 354 353 354 356 355 356 355 355 354 360 355 357 351 353 356 356 358 360 361 362 365 367 366 366 366 365 360 359 358 357 357 361 363 362 362 362 361 358 359 360 362 357 355 355 353 348 352
304 299 298 297 299 300 304 309 312 315 316 318 323 313 322 326 332 335 337 336 336 333 333 334 334 335 336 335 337 338 339 340 341 341 342 343 342 342 342 343 343 342 341 340 340 342 344 349 352 352 351 351 353 354 354 354 354 353 355 356 356 355 348 350 354 356 358 358 359 361 363 368 366 366 367 367 361 361 360 360 363 363 363 362 362 361 362 365 358 361 361 363 358 356 355 349 348
297 301 297 300 298 300 299 307 311 314 315 311 318 316 321 326 331 333 336 336 336 333 332 333 333 333 333 334 336 337 337 338 339 340 341 343 342 342 344 347 344 342 342 341 341 341 345 348 350 351 351 352 352 353 353 352 352 354 354 353 356 352 347 349 351 353 356 357 359 361 365 366 367 366 365 365 362 364 362 360 362 363 363 362 360 359 358 360 359 357 358 363 360 357 353 348 344
297 297 296 298 301 301 300 301 308 311 314 311 312 319 322 326 330 333 334 335 334 333 333 333 334 332 333 334 335 336 336 337 339 340 342 344 344 343 344 344 343 342 342 340 342 341 345 347 351 351 350 350 351 353 353 352 351 352 351 351 350 351 347 347 349 350 354 358 360 363 364 365 367 367 366 367 363 361 359 361 360 360 362 360 360 357 355 360 362 357 357 358 363 358 353 351 344
302 302 299 299 297 298 300 304 308 311 310 309 312 316 321 324 328 331 334 334 333 332 333 334 334 333 332 334 334 335 336 337 340 341 342 344 345 344 344 344 342 341 341 340 343 341 344 347 349 350 349 350 350 353 351 350 348 349 346 346 346 351 346 348 348 350 357 359 362 363 363 364 367 367 367 365 362 360 359 361 363 362 360 359 357 354 354 356 357 358 358 356 355 358 360 355 346
307 305 303 300 301 301 305 305 308 310 310 309 312 320 321 323 326 328 331 333 333 332 331 332 333 332 334 333 334 334 336 338 341 343 342 343 344 345 344 344 342 342 341 339 342 340 344 347 348 347 348 349 349 350 347 347 344 345 344 343 342 346 344 348 348 350 357 359 362 362 363 365 366 366 367 365 360 363 358 359 362 358 358 358 357 356 357 356 358 362 361 361 359 352 354 350 346
305 303 302 300 302 299 305 305 308 310 306 307 311 317 320 322 325 327 329 329 329 331 331 331 331 333 337 335 337 333 336 339 342 341 342 342 343 344 344 343 344 340 340 338 342 339 344 347 347 347 346 349 349 350 347 349 346 346 343 341 340 340 347 347 345 349 357 361 361 361 363 365 364 365 367 365 362 359 358 361 358 358 357 358 358 359 356 358 360 360 360 355 360 351 350 349 346
304 301 300 299 299 303 306 307 309 309 308 306 310 312 319 322 324 327 327 328 331 334 333 333 333 333 335 336 337 339 336 335 339 340 341 341 342 343 343 343 343 342 340 338 342 340 343 346 347 347 347 349 350 351 349 350 348 350 345 342 338 339 349 348 346 352 359 359 359 360 362 363 364 365 366 367 363 362 361 361 362 361 358 361 357 356 358 357 358 359 357 354 355 355 354 355 348
301 299 297 296 301 299 294 303 307 308 307 305 310 311 316 322 324 325 328 329 331 335 335 335 336 334 335 336 337 338 336 337 335 337 338 340 341 342 343 342 343 344 340 337 341 341 341 347 346 346 349 351 351 353 353 353 350 351 347 344 340 344 344 348 351 356 358 359 357 359 362 363 364 364 365 366 366 364 364 363 364 361 360 362 357 357 358 358 359 357 358 359 355 348 346 348 350
302 302 300 299 301 302 301 300 305 307 307 308 305 307 316 319 320 322 326 330 331 334 335 335 337 337 337 340 339 340 338 336 337 336 338 339 339 341 342 342 343 344 340 337 341 341 341 345 347 347 349 352 352 356 353 352 352 350 348 345 347 347 349 345 345 352 355 358 357 357 361 362 363 362 363 363 363 362 362 362 361 358 363 364 362 359 360 359 359 360 359 357 353 350 348 349 353
300 304 303 303 304 302 303 304 303 298 297 305 306 296 305 317 320 321 324 326 328 333 332 332 335 335 338 338 338 341 342 342 338 338 337 338 339 340 342 342 342 343 341 336 342 341 341 345 347 348 349 353 352 355 354 351 349 346 343 343 340 339 339 340 339 345 351 354 354 357 362 361 361 360 361 360 362 362 364 364 362 362 365 364 361 360 362 361 359 358 360 358 356 356 352 350 347
298 300 306 306 305 304 303 303 301 294 293 301 308 296 294 315 316 319 322 323 325 330 331 333 336 336 337 337 337 338 339 341 344 340 339 338 339 339 341 341 342 343 344 341 344 341 341 346 348 349 349 352 354 354 354 351 349 346 343 344 342 339 339 340 341 342 350 351 355 355 358 360 360 360 360 360 361 362 364 364 364 363 363 364 366 363 363 361 360 359 361 355 354 360 357 349 348
297 306 307 306 305 303 303 303 300 297 303 304 304 302 295 304 314 320 322 321 323 326 330 334 335 336 336 336 338 337 340 340 340 340 338 339 339 339 340 342 342 344 346 344 345 342 341 346 348 348 350 352 354 354 352 350 347 345 345 344 345 339 340 339 341 341 345 349 352 354 356 358 359 359 359 359 361 362 364 363 364 363 362 363 365 362 360 361 361 363 361 359 361 360 358 352 350
302 307 308 305 305 304 305 302 299 300 298 292 298 302 297 296 308 321 321 318 320 323 328 331 333 335 335 336 337 338 339 339 339 338 338 338 338 339 342 342 343 345 346 345 345 343 345 345 349 349 351 350 353 352 351 349 348 345 344 344 344 341 341 342 344 346 343 347 350 353 354 356 358 358 359 358 361 363 365 363 364 362 362 362 366 361 359 360 357 361 360 361 360 360 360 357 352
306 308 308 307 306 306 304 300 300 301 295 291 296 301 294 294 304 315 319 318 318 321 326 330 332 334 335 335 337 338 339 339 339 339 339 339 340 340 343 344 344 345 346 348 347 345 346 346 349 348 351 350 352 351 351 349 347 346 343 343 342 344 344 343 342 347 342 341 348 350 352 354 356 356 360 359 360 362 363 364 364 363 362 361 364 358 357 357 357 360 361 361 362 360 360 361 353
308 307 305 303 303 301 301 301 300 296 292 291 299 300 297 290 300 302 312 315 319 322 325 329 332 334 336 337 337 337 338 339 339 339 340 340 341 341 343 343 344 345 346 348 348 346 348 345 348 347 350 351 352 350 349 349 348 345 343 344 342 346 344 342 340 343 344 340 342 348 350 353 355 354 356 360 359 361 362 364 363 363 363 363 363 360 360 358 357 360 361 361 363 363 361 359 361
306 303 301 299 297 299 297 299 300 292 288 298 299 299 299 289 296 303 307 319 324 324 323 326 330 332 334 336 337 338 338 339 340 339 339 340 339 340 342 343 343 344 346 347 348 347 348 346 348 347 348 351 352 350 348 348 349 344 344 345 343 346 346 342 339 341 346 341 341 346 350 353 353 355 354 355 359 358 361 362 362 362 362 360 360 360 362 360 358 358 358 359 359 362 361 361 359
302 300 299 294 290 292 288 293 290 288 287 298 301 301 296 294 297 303 306 307 323 325 326 327 331 332 333 335 337 338 339 340 340 340 339 338 337 338 339 342 343 343 345 346 348 348 348 346 347 347 347 350 352 350 348 347 348 346 344 345 345 346 347 343 341 341 343 342 344 343 349 350 351 352 353 352 355 356 358 359 359 359 360 360 362 359 359 362 364 356 356 358 359 359 360 359 357
299 297 297 292 287 287 283 288 291 291 297 301 300 303 295 299 300 305 305 307 311 327 327 330 333 333 333 335 336 338 339 339 340 340 340 339 338 339 340 342 343 344 345 346 347 348 348 347 347 347 347 349 352 350 348 347 347 348 345 346 347 346 346 346 343 342 342 343 344 344 345 351 351 352 353 353 353 355 358 359 360 359 362 360 362 361 359 360 363 362 362 357 358 360 360 360 359
299 303 298 294 292 292 286 288 285 288 290 296 302 297 292 293 295 306 307 309 310 314 329 331 334 334 335 337 337 338 338 339 340 340 340 340 340 340 340 342 344 345 346 346 347 348 348 348 347 346 346 347 350 350 348 346 346 348 347 346 348 346 345 346 345 345 341 343 343 346 345 350 350 352 353 354 355 353 357 359 359 358 362 363 362 364 365 362 363 362 364 362 361 361 360 360 359
302 303 303 296 293 298 289 293 294 295 293 293 296 295 300 299 306 309 309 310 310 311 325 331 331 332 333 335 335 336 337 338 339 340 340 341 341 341 341 341 344 345 346 346 346 348 348 348 348 347 346 347 348 351 349 347 346 348 348 346 346 347 347 345 345 347 343 343 343 343 346 347 351 350 352 354 355 354 354 358 359 358 360 363 362 362 361 361 362 359 358 359 359 363 360 357 358
300 302 294 298 303 299 297 299 300 298 294 290 301 297 301 306 305 306 307 308 308 310 310 329 330 330 332 333 334 335 337 338 339 339 340 340 340 342 342 342 343 346 346 346 346 347 348 348 349 347 347 347 346 350 350 348 346 346 347 347 346 346 345 343 343 344 346 344 345 343 345 347 349 351 351 355 354 355 354 357 357 358 359 361 362 362 362 361 361 360 360 358 356 359 357 358 357
299 294 298 306 306 304 300 289 294 292 288 292 298 295 297 298 294 305 305 305 307 307 309 319 329 330 330 332 333 335 336 338 339 340 341 341 341 342 343 344 345 346 347 346 346 347 348 349 350 348 348 347 346 347 349 348 346 346 346 346 345 345 344 343 342 343 344 347 347 345 346 347 348 352 352 352 353 354 355 362 357 357 358 360 362 362 362 362 362 359 360 360 360 359 358 360 360
300 299 306 296 292 292 297 296 287 287 288 289 293 297 297 300 301 302 303 304 305 306 308 309 328 330 330 331 334 335 337 337 337 339 340 341 342 343 344 345 346 348 348 347 347 348 349 349 350 350 349 349 347 347 348 349 348 346 347 346 345 344 343 343 342 343 341 345 348 348 347 348 349 350 353 350 351 352 355 356 357 356 357 359 360 361 363 362 362 359 359 360 360 359 357 357 359
306 305 300 303 297 294 292 298 295 292 288 291 290 295 291 304 303 305 304 306 306 308 307 309 326 329 331 332 333 334 334 336 338 340 341 342 344 345 345 346 346 347 348 347 347 348 348 349 351 351 351 351 350 347 348 348 348 347 346 346 346 345 344 342 341 341 340 340 345 349 349 350 349 349 349 351 349 351 352 355 356 356 358 358 359 360 362 362 361 359 358 359 359 359 358 357 357
295 296 296 299 301 302 299 301 295 292 289 288 288 287 296 301 307 306 309 309 308 309 309 309 312 328 331 332 332 333 334 336 339 340 342 343 344 346 346 347 347 348 349 349 348 347 348 349 351 352 351 351 350 349 348 348 349 347 346 345 345 345 343 343 341 341 340 339 340 345 349 350 351 348 347 346 352 350 351 354 355 356 357 358 357 358 361 361 361 359 357 357 356 357 357 356 356
295 294 293 295 293 292 291 289 300 297 293 286 288 288 296 304 311 310 312 319 312 311 310 313 312 314 331 332 333 334 335 337 338 339 341 343 344 346 346 347 347 347 348 348 348 348 348 349 350 353 353 353 352 350 349 349 350 348 345 345 345 345 345 343 341 340 340 339 339 340 344 348 349 350 348 346 347 353 352 353 354 355 356 357 358 357 358 360 359 358 358 359 358 357 356 356 356
Wind_Speed
8 7 6 6 4 4 2 2 3 2 2 4 4 2 2 1 1 2 8 6 1 3 5 0 3 5 3 3 8 10 13 4 1 4 5 3 9 12 10 13 13 11 10 9 8 8 10 12 16 17 17 17 18 18 18 18 18 18 18 18 18 18 17 16 16 16 16 15 15 14 14 14 13 13 13 13 13 14 14 13 14 14 14 14 14 15 15 15 14 14 14 13 13 14 14 14 14
5 6 7 6 4 2 0 1 2 2 2 3 6 3 2 1 2 3 6 5 2 2 6 4 4 1 5 14 7 8 13 9 7 9 7 10 11 9 13 14 14 14 11 9 9 8 8 10 16 17 17 18 18 18 18 17 17 17 18 18 17 17 16 16 16 16 16 15 15 14 14 14 14 13 13 13 13 13 13 13 14 14 14 14 14 14 14 14 13 13 13 14 14 14 14 14 14
7 7 5 4 2 2 2 1 2 1 2 4 2 4 1 1 2 2 3 1 1 7 8 6 5 10 7 7 11 8 5 7 17 13 10 12 12 10 15 15 13 13 13 9 9 9 8 9 14 16 17 18 17 17 17 17 17 17 17 16 16 16 16 16 16 16 16 15 15 14 15 14 13 13 13 13 14 14 14 13 13 14 14 13 13 13 14 14 13 13 13 13 14 14 14 14 13
8 7 5 7 1 2 2 2 2 2 3 3 6 1 1 2 5 3 1 4 8 6 6 5 7 4 12 14 12 18 9 7 8 16 10 10 8 14 15 16 14 11 10 9 10 9 8 12 13 15 17 17 17 17 17 17 17 16 16 16 16 16 16 16 16 15 15 15 14 15 15 14 13 13 14 14 14 13 13 14 13 13 12 13 13 13 13 13 12 13 12 13 14 14 13 13 13
4 3 4 3 3 1 1 1 1 0 3 1 3 3 1 6 2 5 3 1 8 7 6 9 8 7 13 14 5 6 7 11 10 8 10 10 12 14 15 15 12 12 10 10 10 9 10 15 15 16 17 18 17 16 16 16 16 16 16 16 16 16 16 16 15 15 15 15 14 14 14 14 13 14 14 14 14 13 14 14 14 13 13 13 12 12 12 12 12 12 12 13 13 13 13 13 12
4 5 4 2 1 1 1 3 2 4 5 3 3 2 3 8 5 6 4 2 6 2 7 10 7 9 7 8 6 10 13 8 10 11 12 14 17 18 17 14 13 12 11 10 10 8 9 15 16 17 17 17 16 16 16 16 16 16 16 16 16 16 16 16 15 15 14 14 14 13 13 13 13 14 14 14 14 14 14 14 14 13 13 12 12 12 11 12 12 12 12 13 13 13 13 12 12
2 2 1 1 2 1 3 3 6 3 6 6 3 4 5 8 4 7 5 4 3 5 13 12 16 15 11 9 13 8 8 13 11 12 11 18 20 19 17 14 14 14 13 10 9 9 12 15 17 18 17 17 16 16 16 16 16 16 15 16 16 16 16 15 15 15 14 13 14 14 13 13 14 13 14 14 14 14 14 14 14 13 13 13 12 12 11 12 12 11 12 13 12 12 12 12 12
2 1 3 1 1 1 3 4 4 2 3 4 3 4 6 6 4 4 3 4 5 2 8 12 6 11 13 7 11 12 15 9 16 18 20 18 19 18 16 15 15 15 14 11 9 9 15 16 16 17 17 17 17 17 16 16 16 16 15 16 16 16 16 15 15 14 14 14 13 13 13 13 13 13 14 14 14 14 14 14 13 13 13 12 12 11 11 11 11 11 12 11 11 11 12 12 12
3 2 1 1 2 2 3 5 4 2 6 4 3 1 5 6 6 4 1 2 4 6 9 15 12 15 9 14 10 11 13 18 18 21 20 19 19 17 13 15 15 14 15 12 10 9 10 15 16 17 17 17 16 16 16 16 16 16 16 16 16 16 15 15 14 14 14 13 13 13 13 12 13 14 14 13 13 13 13 13 12 13 13 12 11 11 11 11 11 11 12 11 10 11 12 12 12
2 1 1 1 1 3 3 1 3 4 2 3 3 2 5 2 7 4 3 4 6 6 9 10 9 16 12 14 13 11 12 19 20 18 18 18 17 16 17 17 17 18 15 12 12 10 9 17 17 17 17 16 16 16 16 16 16 16 16 16 16 16 15 15 14 14 14 13 13 13 13 13 13 13 13 13 13 13 13 13 12 12 12 12 11 11 11 11 11 11 12 11 9 10 10 11 11
1 2 1 1 2 1 2 5 5 3 4 3 3 2 3 5 6 7 6 4 7 4 15 17 14 17 13 9 7 11 18 19 19 20 18 18 17 16 15 15 16 16 16 15 12 10 10 10 18 16 16 16 16 16 16 16 16 16 16 16 16 15 15 14 14 14 14 13 13 13 13 13 14 13 13 13 13 12 12 12 12 12 12 12 11 11 11 11 11 11 11 11 10 9 9 10 11
2 1 1 1 1 1 2 3 7 4 2 1 2 4 0 4 7 7 6 3 8 9 13 9 9 16 12 11 10 15 19 19 18 18 16 17 16 17 14 12 16 16 16 15 13 10 9 9 9 15 17 17 17 17 17 17 16 16 16 16 15 15 15 14 14 14 14 13 13 13 13 13 14 14 13 13 12 12 12 12 12 12 12 12 11 11 11 11 10 11 10 9 9 8 9 9 9
3 3 2 0 1 2 2 5 3 5 2 1 0 2 1 5 3 3 7 2 3 9 7 11 17 11 11 9 8 16 18 17 15 17 18 14 15 15 15 15 16 16 14 13 13 11 11 9 9 9 12 17 17 18 17 17 16 16 16 15 15 15 15 14 14 14 14 13 13 13 13 13 13 14 13 13 13 12 12 12 12 12 12 11 11 11 10 10 10 10 10 9 8 7 6 7 9
4 5 4 2 1 2 2 2 1 2 2 4 3 2 3 2 4 3 5 7 6 4 11 14 11 14 15 12 10 11 13 16 16 18 15 15 14 16 18 15 16 15 15 14 13 12 11 10 9 9 10 10 9 13 17 17 16 16 16 15 15 15 14 14 14 14 14 14 13 13 13 13 13 14 13 13 12 12 12 12 11 11 11 11 10 10 10 10 9 9 9 8 7 6 5 7 8
5 4 2 2 3 2 3 2 3 3 3 4 4 3 2 5 6 4 8 8 6 3 13 10 13 12 11 17 13 12 15 17 17 16 15 13 17 17 18 15 15 15 14 14 13 13 12 11 10 8 8 8 8 6 7 12 16 16 15 15 15 15 14 14 14 13 13 13 13 13 14 13 13 13 13 12 12 11 11 12 11 9 9 10 10 10 9 8 8 8 8 7 6 5 6 6 7
4 4 2 1 3 2 4 1 1 1 1 6 6 6 4 1 3 4 7 6 8 6 8 8 8 2 16 8 15 17 20 18 16 15 16 16 17 15 15 16 14 13 12 13 13 11 11 10 9 8 8 8 7 7 7 8 13 15 15 15 15 14 15 14 14 13 13 13 13 13 13 11 12 10 13 10 11 11 11 9 11 10 10 9 8 8 8 7 6 6 6 5 5 4 3 4 4
8 5 4 2 5 2 1 1 3 2 2 4 6 5 7 6 3 3 5 7 6 10 5 11 5 13 14 13 16 20 20 18 15 16 15 12 12 12 12 10 10 11 10 11 11 11 11 11 10 8 9 9 9 8 7 7 10 14 13 15 15 15 14 14 14 14 12 11 10 11 10 5 5 5 7 5 10 6 9 10 10 10 9 9 8 7 6 5 4 5 5 5 4 3 2 3 3
5 3 3 6 6 7 1 3 3 3 2 4 7 2 1 3 5 3 1 1 6 7 9 8 11 12 13 15 17 20 20 19 17 18 14 12 10 12 11 10 11 11 10 10 10 11 11 10 10 10 8 9 9 7 6 6 7 10 6 7 7 10 11 12 9 6 8 5 10 6 3 5 5 4 5 8 4 6 8 11 10 9 8 7 7 6 6 5 4 5 4 5 4 3 3 1 1
5 3 4 8 5 5 4 7 7 5 3 3 7 6 3 2 0 2 6 2 1 4 8 12 13 15 18 18 17 18 20 19 19 17 17 13 12 14 11 10 11 11 10 9 9 12 9 9 9 10 9 9 10 7 7 6 7 5 6 6 6 8 8 7 5 6 3 5 4 3 3 4 4 3 4 6 5 9 7 11 10 9 9 8 6 5 4 5 6 5 4 4 4 3 1 1 1
7 4 6 7 7 3 7 11 9 10 7 6 7 8 6 4 5 4 5 9 6 4 8 13 14 19 20 18 17 17 17 19 18 18 18 13 15 14 12 12 11 10 11 10 10 10 9 9 10 9 9 10 8 7 6 6 6 6 5 5 5 5 5 5 4 4 4 5 4 3 3 3 3 3 9 13 10 4 6 9 10 9 9 8 7 4 5 5 5 4 3 3 2 1 1 3 1
6 7 6 7 5 4 4 9 11 13 10 7 7 6 4 5 5 4 5 4 1 5 8 14 19 21 21 20 16 17 17 18 16 17 16 14 14 12 11 11 11 9 9 9 10 10 10 10 9 9 9 9 8 7 8 7 6 6 5 5 5 5 5 5 4 4 4 4 5 4 4 3 3 2 4 5 5 4 3 3 3 3 3 3 5 3 3 2 3 2 0 0 1 1 2 2 1
5 9 13 13 5 6 10 8 12 12 12 8 7 6 6 3 3 3 4 6 6 4 3 9 19 21 22 21 18 15 16 18 16 16 15 15 15 12 11 11 11 10 8 9 11 11 10 10 10 9 10 8 8 8 8 7 7 6 6 6 5 5 6 5 4 4 4 4 4 3 5 5 3 3 3 4 4 4 3 3 3 3 2 2 2 4 3 2 0 1 1 2 2 3 3 2 2
7 6 10 10 6 5 7 11 11 16 12 15 12 8 7 6 2 2 3 4 3 1 5 7 17 18 19 18 20 18 17 17 17 16 15 17 15 13 13 11 11 11 8 8 10 9 9 10 10 10 10 8 9 8 7 7 6 6 6 6 6 6 6 6 5 5 5 5 4 3 4 5 4 4 4 4 4 4 4 3 2 2 3 2 2 4 3 2 2 2 3 3 2 1 1 2 3
9 6 5 8 10 7 11 13 15 14 17 14 12 14 7 11 8 4 3 4 9 6 5 11 16 20 18 16 16 18 17 17 17 14 14 15 16 15 14 12 10 10 9 10 9 9 9 10 10 10 8 8 8 8 7 7 5 7 7 7 6 7 6 6 6 6 5 6 4 4 3 5 5 4 4 4 4 3 3 2 2 2 1 0 2 2 2 1 2 2 1 1 2 1 2 3 3
10 9 8 10 10 5 12 15 14 15 13 14 18 13 7 7 5 7 6 9 12 6 5 12 17 19 19 18 17 15 17 16 16 13 12 11 14 14 14 10 10 11 11 11 10 10 11 10 10 9 9 8 7 9 8 6 5 6 6 6 5 6 5 6 6 6 6 5 4 4 2 6 5 4 4 4 4 3 2 2 2 1 0 0 1 1 2 1 1 1 1 2 2 3 2 3 3
6 6 7 8 8 6 9 14 17 14 11 14 16 12 8 6 11 7 9 10 10 6 7 17 15 16 17 17 15 15 16 17 15 15 12 12 13 14 14 11 11 12 12 11 11 10 9 11 11 10 9 7 9 9 7 6 6 6 6 6 6 6 5 5 6 6 6 5 5 4 3 4 6 6 5 4 5 4 3 2 2 1 1 0 1 2 1 1 2 2 2 2 2 4 3 4 5
3 9 10 11 9 7 2 8 18 16 17 15 14 13 10 7 8 2 6 9 10 7 10 16 15 16 16 16 15 14 17 16 17 13 10 10 12 13 13 11 12 12 12 12 10 10 10 11 10 10 8 6 7 8 7 7 7 7 6 5 6 6 5 6 6 6 6 6 6 6 4 5 5 6 5 5 4 4 3 2 2 1 1 2 1 2 3 3 3 3 2 3 1 4 3 4 2
9 10 11 8 3 6 6 8 4 16 9 15 16 11 10 6 3 4 7 10 12 7 13 16 16 14 14 16 14 12 14 13 14 15 14 12 9 12 13 10 13 13 12 12 10 8 12 12 11 10 9 7 7 8 7 8 7 6 6 6 5 5 6 6 6 6 6 6 6 5 5 5 4 5 6 5 5 5 4 4 4 3 3 2 2 2 2 2 1 0 2 2 2 1 3 4 3
7 8 9 6 7 7 5 7 4 3 10 12 16 13 7 5 7 9 10 10 14 11 14 13 15 14 13 11 12 12 12 12 13 14 14 12 11 11 12 12 12 13 10 12 11 11 14 12 12 10 10 9 7 9 8 8 6 6 6 6 5 6 6 6 5 5 6 7 6 6 6 5 4 6 7 8 7 6 5 4 4 3 2 3 3 2 2 2 1 0 1 1 2 2 2 4 3
6 6 3 5 6 7 6 3 5 4 14 19 16 6 7 11 9 11 13 14 14 14 13 16 14 14 14 13 9 13 11 13 13 12 13 11 14 13 11 14 11 12 9 9 11 12 12 9 10 9 9 10 8 8 8 7 6 6 6 5 6 6 5 5 5 6 7 6 6 5 5 5 5 5 6 5 7 7 6 5 4 4 4 3 2 2 4 2 1 0 0 3 2 0 2 3 2
5 4 2 4 3 5 5 6 8 10 16 19 14 6 6 8 10 15 13 17 18 14 11 13 13 12 11 13 9 10 10 10 13 11 14 9 14 14 13 14 12 12 8 12 13 12 12 11 10 9 10 10 8 9 9 8 7 6 6 5 6 5 5 5 6 6 6 6 6 5 4 4 5 4 4 5 5 6 6 5 4 4 4 3 3 2 2 2 1 0 1 0 1 1 1 1 1
6 2 5 3 6 3 9 11 12 12 19 19 15 6 9 12 10 15 13 14 15 12 10 11 13 12 11 13 12 11 9 8 11 12 14 9 13 12 14 15 13 13 11 13 12 11 11 13 11 11 11 11 6 10 8 7 8 7 6 6 6 5 6 6 7 6 6 6 5 5 4 4 5 5 4 4 5 4 5 5 4 4 3 3 4 2 2 1 0 1 1 1 0 1 0 3 0
4 5 3 5 7 8 6 12 11 17 11 20 13 5 7 1 9 13 12 16 15 10 13 11 13 14 14 11 13 11 11 11 11 11 15 10 11 11 12 15 13 13 10 14 11 12 9 14 11 14 13 9 9 10 8 6 8 6 6 7 6 4 6 6 7 6 6 6 5 5 4 4 4 5 4 4 4 4 5 5 4 3 2 3 3 1 1 1 2 2 1 1 1 1 2 2 3
5 5 7 7 7 5 8 7 12 14 14 10 17 9 13 12 14 15 15 16 14 11 13 12 12 10 11 10 13 14 12 11 11 6 15 11 10 11 12 14 14 14 10 15 10 13 11 12 12 13 10 9 9 8 7 7 6 6 7 7 4 4 5 6 7 7 7 6 6 5 4 5 4 5 4 4 4 4 4 4 3 4 3 3 3 3 1 1 0 2 1 1 2 1 2 3 4
8 6 7 8 9 10 8 5 8 13 17 10 14 13 15 16 17 17 17 15 14 12 12 12 12 11 11 10 12 13 12 14 13 9 13 11 11 9 13 14 14 14 10 15 9 11 10 11 11 12 10 9 9 7 7 6 5 5 7 6 5 3 4 6 6 6 6 7 7 6 5 4 4 5 4 4 5 4 4 4 4 3 3 3 3 2 1 1 1 1 1 1 0 3 4 4 5
9 7 2 4 6 7 10 13 11 11 16 11 16 13 12 15 15 16 16 17 14 14 13 11 12 11 12 11 10 13 13 16 13 13 11 13 11 9 11 13 13 12 10 14 10 11 10 10 12 11 10 10 9 6 6 6 6 6 8 6 5 3 5 6 6 6 8 7 7 7 6 5 4 5 4 4 4 4 4 3 4 4 3 3 3 2 1 0 1 1 1 0 3 3 1 1 3
13 11 10 9 9 8 11 10 9 8 12 13 13 20 16 19 20 16 19 16 12 13 14 12 13 11 10 11 12 12 13 14 14 13 12 14 15 9 10 12 13 12 12 14 11 11 11 11 13 13 10 10 9 8 7 6 7 6 6 7 6 5 6 5 6 7 8 8 8 7 7 5 5 5 5 4 4 3 4 3 5 4 3 3 3 3 2 1 1 0 0 1 1 2 1 2 4
13 10 10 10 11 10 6 4 6 9 5 11 11 20 20 22 20 20 17 17 16 17 15 14 14 12 9 10 9 12 12 11 15 12 12 15 15 15 11 11 13 14 13 15 11 12 12 12 14 13 9 10 9 9 8 5 6 6 7 8 5 4 4 5 5 7 8 8 8 7 6 6 6 5 5 5 4 4 4 3 4 5 4 3 3 2 2 1 1 1 1 1 0 0 1 0 4
10 8 7 8 8 9 11 12 10 5 7 8 16 15 22 24 23 19 21 21 17 18 18 16 14 14 10 10 9 5 12 13 16 16 15 13 16 16 12 13 12 14 14 16 11 11 12 11 12 13 9 10 10 9 8 5 5 5 6 7 6 4 3 5 5 7 8 8 8 7 7 7 6 5 5 6 5 5 4 4 4 5 4 4 3 2 2 2 2 1 2 1 0 0 1 1 3
7 5 4 7 8 7 6 9 11 5 1 2 11 14 14 20 19 22 22 20 16 17 18 15 14 14 14 15 13 9 11 9 14 17 18 16 16 14 12 13 13 13 13 15 11 12 11 10 12 12 11 11 10 9 8 6 8 4 5 8 6 5 4 4 3 9 7 9 8 7 7 7 6 6 6 5 5 5 5 5 4 5 5 4 5 4 3 3 2 2 2 2 2 0 1 1 1
6 8 7 6 7 9 7 6 8 10 10 3 6 6 9 13 14 12 13 14 14 16 16 16 14 12 12 11 10 10 12 11 10 14 15 17 15 16 14 13 13 14 14 15 13 12 11 12 14 13 12 11 10 10 9 8 8 5 5 7 4 3 2 3 4 8 8 8 8 6 8 8 7 6 6 6 5 6 6 5 5 5 5 5 5 4 5 5 4 4 4 3 2 2 0 0 1
6 6 8 8 11 13 12 11 10 6 8 4 2 2 4 11 20 18 14 12 16 17 19 18 16 15 14 14 14 11 9 9 12 14 18 18 16 16 16 15 15 14 15 15 13 12 12 11 13 13 11 11 12 11 10 9 10 7 7 8 6 6 6 5 6 9 8 8 8 6 7 8 7 6 6 6 5 5 6 6 5 5 5 5 5 5 4 3 4 4 5 4 3 2 2 1 1
5 5 8 10 9 9 10 12 8 4 3 5 1 7 1 9 12 15 15 17 16 15 17 15 15 15 14 14 14 14 14 11 7 7 10 17 18 16 16 17 16 15 15 15 13 12 13 11 13 13 12 10 11 12 10 10 8 8 9 8 8 9 8 6 5 6 8 7 6 7 7 7 7 6 6 6 5 5 5 6 6 5 5 5 5 4 4 5 4 3 4 4 4 3 2 0 1
6 4 10 3 8 10 9 9 6 5 6 9 8 2 6 6 10 15 17 16 14 16 15 15 15 16 16 15 16 16 15 15 12 11 11 10 17 18 18 19 16 16 15 16 13 13 14 12 14 14 11 11 11 11 11 11 10 9 8 6 9 9 9 8 7 6 7 6 9 8 7 7 7 5 6 6 5 6 5 6 6 5 5 5 5 5 4 4 3 3 4 5 3 3 3 2 1
2 4 9 11 9 7 8 10 6 2 4 7 9 6 2 4 11 15 16 13 11 13 16 17 18 18 18 17 18 17 17 17 16 13 13 12 13 18 17 18 15 16 16 17 14 15 12 13 15 13 13 13 11 14 11 10 11 10 8 6 7 8 8 7 6 6 7 6 9 7 8 7 7 7 6 7 5 6 6 6 5 4 4 5 5 5 4 5 5 5 5 5 4 3 3 2 1
6 13 10 9 6 6 6 2 1 2 5 6 6 3 3 2 2 15 14 16 16 16 18 19 20 20 19 18 17 17 16 15 15 15 15 15 12 17 16 17 17 16 16 15 15 14 12 13 15 15 14 13 12 14 12 10 11 10 9 6 8 8 7 7 7 6 7 6 8 8 8 7 7 7 5 7 6 6 6 6 5 5 5 4 5 6 5 4 4 5 5 5 4 3 3 3 3
2 6 10 8 5 4 3 2 3 4 1 4 7 7 3 3 4 8 16 15 19 17 13 14 15 16 17 17 18 17 17 16 15 15 16 16 13 17 16 18 18 15 15 16 15 15 13 15 16 16 15 13 13 14 13 12 11 11 10 7 9 8 9 10 9 5 8 7 7 8 8 7 7 7 5 6 7 6 6 6 6 6 4 4 4 4 3 6 6 5 6 5 5 5 4 3 2
3 2 1 2 5 4 5 2 3 1 2 2 4 8 6 6 2 5 5 13 24 21 21 19 19 20 19 17 17 18 18 17 16 16 16 16 13 15 16 17 18 17 16 17 16 16 15 15 16 17 15 15 14 15 14 12 11 12 10 9 9 8 9 10 11 8 8 9 8 9 7 7 7 7 6 6 7 7 6 6 6 6 6 5 5 4 3 3 7 6 6 6 5 4 4 3 3
3 4 1 1 0 2 4 1 1 3 4 2 5 5 7 9 5 6 10 5 17 22 20 22 24 24 22 21 21 18 18 17 18 16 16 16 16 16 18 17 18 18 16 19 18 17 16 15 17 18 17 16 15 16 16 14 12 12 12 10 9 8 8 10 10 9 7 8 8 7 8 8 7 6 7 7 6 8 6 6 6 6 6 6 5 5 4 3 3 5 5 6 5 5 5 4 3
3 2 1 3 2 1 3 2 2 2 3 7 9 7 8 1 4 13 17 18 8 23 21 22 23 23 23 21 20 18 17 18 18 17 16 15 16 16 17 18 18 17 17 19 19 18 16 16 18 18 18 17 15 16 17 15 14 13 13 12 9 9 8 10 10 9 7 7 7 8 8 9 9 9 8 9 8 7 7 7 7 6 5 6 5 6 5 4 3 4 4 5 6 6 5 5 5
6 1 4 5 4 2 3 3 4 5 6 9 16 8 3 5 5 8 17 18 15 10 19 19 23 25 24 22 21 20 19 18 17 17 18 17 16 17 18 17 17 18 18 19 18 17 16 16 18 20 17 16 15 17 16 17 14 13 13 12 10 9 9 9 10 9 8 7 6 7 8 7 8 8 9 7 7 7 7 7 8 7 5 6 6 5 5 4 3 3 2 2 3 5 6 6 5
1 5 5 5 5 4 6 2 2 1 1 3 3 5 6 8 6 13 12 16 16 15 17 25 21 18 18 17 18 18 18 19 19 18 19 19 17 17 16 16 16 17 18 17 19 17 17 17 19 20 20 19 17 17 16 17 16 14 13 13 13 11 10 8 8 8 8 8 8 8 7 7 8 7 6 7 7 7 7 8 8 8 7 6 6 5 5 4 3 4 3 2 1 2 5 5 5
1 1 5 7 4 4 0 3 8 8 4 6 3 7 7 3 7 6 10 12 17 20 8 23 20 20 20 19 21 21 20 20 19 19 18 19 18 17 16 17 17 17 18 18 18 18 19 18 19 20 20 18 18 18 17 17 16 15 15 14 13 12 12 11 10 10 11 10 9 8 8 7 6 6 6 6 7 6 7 8 8 8 8 7 6 6 6 5 5 4 5 4 3 3 3 5 5
0 3 2 3 7 3 1 3 1 3 2 2 4 3 5 7 4 9 9 12 15 13 12 14 21 20 21 20 21 22 23 21 22 20 19 20 20 20 18 17 18 20 21 20 19 18 18 18 20 21 20 20 19 17 16 15 15 15 15 15 15 14 13 13 12 11 9 10 9 9 8 7 7 8 8 7 7 8 7 8 8 8 8 7 7 7 7 7 6 6 6 5 5 4 3 3 4
6 7 5 5 4 2 2 1 3 3 3 3 3 6 8 3 3 7 10 10 9 10 11 8 22 20 21 20 21 23 23 20 18 18 17 18 18 19 19 19 19 19 20 20 19 18 17 16 19 21 22 21 20 17 16 14 15 13 13 16 16 15 13 12 12 11 9 9 11 10 10 10 9 7 8 8 8 8 8 8 8 8 8 8 7 7 7 7 6 6 6 6 5 5 4 4 3
2 6 6 2 5 5 2 1 2 1 2 1 4 4 5 3 2 3 9 11 9 12 12 14 21 26 20 18 19 21 19 18 19 18 19 19 20 21 21 20 20 19 18 19 19 17 19 18 19 20 20 18 18 18 17 17 16 14 14 14 14 14 14 13 12 12 12 11 11 11 11 10 11 9 8 9 9 9 9 9 8 9 8 8 8 7 8 7 7 7 6 6 6 6 5 5 4
10 8 7 1 2 0 1 1 3 3 3 3 3 4 4 8 6 6 3 9 11 10 7 10 15 22 23 22 21 19 19 18 18 19 19 20 20 20 21 20 20 18 17 18 18 19 19 18 18 20 21 21 20 20 18 16 15 16 15 16 16 15 15 14 13 13 13 13 11 11 11 10 9 11 10 8 8 10 10 10 10 9 9 9 8 8 7 8 8 7 7 7 6 7 6 6 5
4 3 6 5 7 5 3 6 3 4 3 3 4 5 7 11 6 9 13 19 9 14 6 4 9 13 27 22 22 20 19 18 21 20 20 20 19 19 19 18 17 17 17 18 18 17 17 18 18 18 19 19 20 19 18 18 16 16 17 17 17 16 15 14 15 14 14 14 13 12 11 10 10 11 11 12 9 8 9 11 10 10 10 9 9 9 8 7 8 8 8 7 6 7 8 7 6
Wind_Direction
172 172 184 189 205 241 236 202 264 150 242 246 293 144 283 191 281 54 108 172 113 232 224 111 68 170 196 160 123 89 23 142 338 147 174 142 134 147 148 132 136 132 132 134 142 141 144 144 139 138 136 134 130 127 125 122 120 117 116 116 115 115 114 113 112 111 112 110 112 111 111 109 103 99 97 97 96 94 93 94 94 94 95 94 93 92 93 91 90 91 89 90 88 89 89 91 91
174 185 186 182 205 185 263 215 248 266 236 276 239 125 247 153 162 113 153 170 178 228 181 150 132 286 229 123 132 76 30 21 84 101 79 114 124 142 143 136 138 138 138 138 140 142 148 148 144 141 139 135 129 126 123 121 120 119 118 117 115 114 113 113 114 115 113 113 114 112 109 107 106 103 101 98 97 97 96 94 95 95 93 93 92 94 92 90 88 89 90 92 92 91 90 91 91
190 188 183 177 241 223 141 27 276 308 307 281 283 185 125 91 58 105 116 204 269 242 179 162 150 188 122 79 47 79 80 62 93 84 101 126 129 146 142 141 140 135 136 139 140 143 147 152 147 145 137 132 129 126 124 122 122 120 117 115 115 115 115 116 116 118 117 116 114 113 111 113 112 112 107 103 101 99 99 95 94 96 95 96 97 97 94 94 92 87 88 89 91 90 91 92 94
190 194 181 170 237 227 250 142 269 297 275 284 316 39 95 87 77 91 153 97 247 250 145 172 172 126 99 78 101 87 92 68 71 120 123 149 145 144 142 142 134 132 134 137 142 140 142 151 155 143 136 133 131 128 125 124 122 119 117 116 118 119 119 119 119 117 118 117 117 115 114 112 112 115 111 104 97 98 101 100 99 97 103 101 100 98 97 94 91 91 90 90 89 91 91 91 94
277 304 256 185 235 226 243 267 264 99 270 343 282 310 279 65 131 135 103 34 283 294 205 132 106 95 107 120 131 108 116 100 98 99 122 124 139 140 140 132 133 134 134 135 132 133 142 150 145 137 135 133 130 129 127 125 122 120 120 122 123 121 120 120 120 121 120 119 117 113 114 117 117 113 109 105 102 101 102 101 98 100 100 102 100 99 100 98 97 97 96 90 92 93 92 93 93
271 256 271 224 126 181 110 261 233 235 236 264 250 289 45 79 144 111 95 297 250 40 263 121 115 120 85 56 83 107 136 125 130 114 126 138 141 138 132 135 135 133 133 128 127 130 140 140 138 137 134 132 131 130 128 126 125 126 126 127 125 123 122 123 122 120 117 115 110 119 119 118 116 111 108 106 106 104 104 103 104 107 107 103 103 102 101 100 99 98 94 92 92 93 95 94 90
202 250 284 325 331 23 282 284 288 297 260 228 258 285 56 91 136 126 154 197 8 295 295 110 106 102 84 103 104 111 96 120 127 128 134 137 135 136 139 135 133 131 128 126 126 133 139 139 139 136 135 134 133 132 130 130 131 129 129 128 127 124 123 121 119 116 115 118 122 121 119 118 115 112 110 109 108 106 107 106 105 106 105 106 106 105 101 100 101 99 98 93 90 91 93 91 90
266 55 329 148 249 343 251 277 296 238 295 188 251 312 60 118 135 129 126 123 165 219 233 122 113 96 93 98 96 108 123 109 117 129 133 137 137 140 136 136 133 130 128 128 130 134 141 138 137 136 135 135 134 133 133 131 129 132 133 129 127 125 121 120 121 121 123 124 123 122 119 119 114 112 110 108 108 106 106 108 104 102 102 101 103 105 107 105 102 100 100 96 87 87 90 91 91
358 88 237 116 256 225 280 269 288 238 279 295 268 319 67 105 120 118 92 4 14 255 138 116 125 95 118 108 96 107 101 117 119 129 135 137 139 138 136 138 135 127 132 128 127 134 135 139 136 136 136 136 135 135 132 132 135 134 132 130 127 124 124 127 126 126 125 124 124 121 120 118 113 111 109 109 108 108 108 106 103 105 105 104 104 103 104 103 101 101 100 97 91 88 89 91 90
78 338 192 176 119 292 266 304 342 280 254 298 312 1 91 112 115 116 177 143 185 269 114 107 107 101 114 103 110 113 123 126 131 131 136 138 133 134 138 136 134 130 127 128 134 135 137 138 138 137 137 138 138 136 134 136 135 134 133 130 129 128 129 128 130 129 127 127 123 122 120 117 113 111 111 110 110 110 111 113 114 106 99 102 104 105 105 104 105 105 105 103 99 90 90 92 93
81 2 269 242 176 284 302 319 291 203 282 346 309 83 75 122 109 126 227 150 175 155 98 102 93 107 106 92 91 114 124 130 134 138 145 138 135 138 138 136 127 122 129 133 134 134 135 138 139 138 138 139 140 139 138 138 136 134 133 133 133 131 131 131 130 128 126 125 125 123 121 117 115 112 110 111 110 111 113 113 111 106 105 105 104 106 107 110 109 106 105 106 104 99 93 94 101
123 177 102 285 298 164 270 271 290 295 269 339 306 80 136 116 126 161 176 178 174 139 125 129 115 118 96 112 120 133 135 140 143 149 142 138 138 139 128 118 122 128 132 132 131 131 134 137 136 142 142 144 144 140 139 138 137 136 136 135 134 134 132 132 130 129 126 127 126 123 121 119 116 116 114 113 114 116 116 115 112 110 111 110 108 110 112 113 114 112 110 104 98 94 96 101 103
135 152 154 253 212 185 247 265 287 290 334 263 184 109 211 136 157 161 168 135 233 140 104 105 128 119 114 119 130 133 143 144 144 129 132 139 140 129 122 125 129 133 131 130 131 134 135 135 138 141 146 143 141 140 138 138 139 138 138 137 136 135 134 132 132 128 128 128 127 124 121 119 117 116 118 119 120 120 120 121 117 116 115 115 117 114 114 113 110 110 106 103 104 106 100 106 109
162 171 131 276 175 217 248 247 181 277 227 110 83 99 216 126 132 189 142 173 191 134 128 132 126 118 109 121 138 144 143 146 135 136 143 147 133 124 128 134 135 131 134 137 135 137 141 139 141 141 141 139 144 138 138 140 140 140 139 138 137 135 134 133 133 131 129 129 128 126 122 120 120 121 120 120 120 118 120 118 119 119 120 121 119 116 116 116 114 109 105 108 110 111 116 109 105
188 140 155 211 246 202 201 179 208 215 254 77 150 187 349 355 55 178 223 152 183 182 140 123 123 120 158 149 154 156 147 147 144 142 145 138 127 130 136 133 129 135 139 139 140 142 141 144 137 135 139 139 137 133 136 142 142 141 139 140 137 136 135 135 134 132 130 130 130 128 124 122 122 121 122 122 122 122 122 121 123 126 122 122 123 122 119 119 114 109 113 117 121 114 104 102 101
173 142 172 208 272 206 274 124 347 106 275 99 136 89 52 210 182 217 238 281 148 174 134 128 166 41 151 143 143 144 141 144 146 145 143 140 133 135 128 129 137 139 138 142 144 144 145 137 139 144 141 140 138 139 137 141 143 142 141 139 138 137 137 138 136 133 131 130 130 124 122 120 121 122 120 119 120 124 127 129 129 133 131 129 129 123 119 117 120 121 122 124 120 121 111 108 107
193 181 242 247 272 239 252 51 89 289 284 85 101 133 197 173 127 312 330 315 155 139 115 155 125 135 149 141 139 143 142 144 149 144 133 138 138 128 130 138 137 135 144 149 147 148 141 142 149 146 148 146 142 139 138 139 146 142 140 140 140 140 141 138 136 134 132 130 122 122 115 105 104 108 115 124 126 132 139 134 130 132 135 136 134 129 130 132 122 117 122 124 121 111 112 85 88
216 203 190 257 253 266 211 110 83 169 183 112 121 183 115 102 114 245 161 81 329 153 145 147 127 133 132 134 145 146 146 148 149 142 141 144 137 136 139 140 140 147 151 150 147 142 141 152 150 149 152 146 138 138 140 146 142 140 139 140 141 143 141 137 132 134 135 122 121 113 99 109 112 116 131 127 126 133 135 138 135 132 130 126 121 127 139 143 155 121 128 126 134 137 126 78 37
204 210 195 245 205 228 149 141 139 128 243 119 126 92 21 76 245 40 122 118 222 184 134 138 133 128 126 143 149 149 147 148 150 146 145 150 140 143 142 142 146 148 149 146 141 142 151 151 151 154 154 140 140 144 144 145 141 141 143 144 150 147 142 133 137 134 119 116 106 107 100 96 113 120 117 131 128 130 132 136 136 134 135 130 127 134 143 148 136 126 132 136 137 151 144 323 235
206 219 233 241 217 203 147 148 143 133 160 163 137 132 167 66 61 268 153 172 204 209 150 135 134 132 141 147 155 151 149 149 152 146 150 147 141 144 144 144 145 150 147 146 140 146 153 154 156 156 149 143 145 145 144 146 147 148 149 149 152 140 124 128 128 130 134 118 121 124 105 102 121 157 142 134 130 122 128 129 132 132 131 131 128 120 125 134 132 134 139 146 119 134 238 264 259
167 201 232 237 207 156 196 145 141 128 144 149 114 125 121 99 181 163 158 125 53 258 158 148 144 141 145 153 156 158 154 151 150 147 148 141 142 147 146 144 148 147 148 139 140 151 158 155 155 153 146 149 148 143 147 155 150 147 152 152 152 139 128 133 137 133 134 124 136 148 139 135 140 138 96 103 110 120 104 98 98 79 84 97 109 99 63 41 36 11 307 191 233 243 266 251 271
247 210 223 238 198 205 181 150 143 131 128 128 113 124 98 141 118 123 169 152 190 215 248 149 147 144 148 153 157 164 154 151 151 149 151 144 149 147 143 145 143 143 149 139 147 151 157 157 156 152 149 159 147 146 153 156 150 153 151 159 154 142 141 146 150 141 135 137 152 175 156 141 146 133 101 107 105 108 100 97 97 117 108 112 84 92 90 78 20 309 232 212 242 225 240 263 246
234 239 258 265 259 173 148 152 148 135 144 137 149 152 137 137 149 172 190 239 224 194 169 182 148 146 152 155 157 165 156 153 152 158 152 150 151 151 148 152 148 150 152 144 142 148 153 154 152 154 155 157 142 148 155 152 157 153 152 159 156 156 154 153 160 151 147 152 170 186 157 142 149 139 119 109 99 106 106 98 101 83 97 99 119 120 123 155 187 245 236 208 219 224 245 230 252
236 241 243 247 252 166 172 160 156 149 150 147 146 148 144 144 155 186 161 251 263 242 165 183 145 143 156 159 166 160 153 150 155 160 154 153 152 155 154 156 149 144 145 146 145 148 158 156 151 155 155 152 144 150 149 154 152 150 156 159 156 165 157 162 160 159 148 159 181 190 164 143 147 140 134 138 141 123 122 132 92 59 30 88 141 140 141 146 186 237 251 321 306 265 272 260 241
218 225 238 274 284 178 183 143 155 153 139 129 134 133 138 164 138 136 205 213 231 231 182 162 152 153 156 164 170 156 148 153 160 158 157 155 154 155 152 156 143 144 146 148 149 153 160 152 158 153 157 155 146 147 152 151 147 149 146 156 163 169 160 160 159 156 154 166 179 188 181 141 150 146 151 151 126 109 119 116 107 125 123 307 143 208 159 178 191 226 202 209 222 259 245 261 254
259 260 219 223 237 242 192 154 153 145 122 133 127 120 143 165 141 153 191 218 220 214 189 153 153 155 159 163 167 156 156 161 159 160 167 155 156 156 151 159 144 148 150 147 152 157 157 151 161 156 161 151 144 146 151 150 156 157 159 169 168 164 168 162 155 162 163 167 178 190 177 150 156 159 156 142 144 143 133 131 110 91 138 303 196 251 128 132 218 259 187 216 237 239 241 247 237
270 241 231 229 234 253 225 171 151 150 139 140 125 135 147 211 192 223 218 222 206 198 160 143 155 163 163 166 167 164 164 160 156 164 159 161 160 157 155 158 149 146 147 152 155 161 151 157 156 149 150 150 142 136 146 155 161 165 167 167 156 164 169 157 162 164 167 169 178 177 169 173 156 160 151 151 145 144 143 135 138 161 182 239 235 214 169 187 221 226 221 237 203 217 223 224 210
298 309 320 309 267 217 238 269 206 128 125 133 134 131 146 176 249 212 184 189 181 175 152 152 155 167 172 168 171 157 165 160 156 161 172 170 166 158 161 157 151 148 152 157 161 156 151 161 151 148 152 156 152 141 149 156 168 167 170 152 165 170 157 174 175 170 166 161 169 160 162 168 157 149 146 157 160 152 156 168 163 163 201 201 215 237 171 203 196 137 263 256 229 280 310 327 315
285 277 286 306 295 282 206 225 255 189 139 146 120 116 141 202 225 190 182 163 171 161 148 154 159 165 173 170 169 158 169 155 162 162 179 168 169 160 161 153 152 151 153 156 161 154 155 159 150 150 155 161 161 151 157 163 169 162 156 158 168 171 172 176 173 151 143 139 142 148 149 148 146 137 157 162 156 153 159 159 170 173 186 198 214 210 132 56 47 15 331 356 352 359 353 305 320
279 290 248 256 269 277 261 194 220 227 139 139 139 131 198 203 212 191 171 164 164 158 164 167 166 165 170 174 168 162 168 161 175 170 176 165 167 161 158 155 150 152 152 155 161 155 160 154 150 152 158 164 169 156 159 162 168 155 151 159 170 170 176 147 143 135 133 126 129 132 132 134 125 122 128 130 138 147 159 166 165 171 183 204 181 139 119 156 156 137 36 31 336 128 259 263 347
238 235 238 229 247 256 248 238 188 213 152 156 150 135 222 206 195 176 167 165 166 168 178 166 156 158 163 167 161 166 164 163 167 167 174 167 160 164 153 156 152 155 149 156 165 157 167 146 152 157 163 167 179 151 159 162 160 155 157 166 174 184 146 144 133 129 123 124 124 126 134 127 125 118 116 122 123 136 145 152 155 164 176 176 128 133 148 145 106 177 103 85 319 314 312 321 261
304 310 253 277 215 228 236 219 211 199 154 168 175 138 194 192 177 165 171 167 165 169 162 162 154 160 171 161 165 173 156 172 162 165 180 177 167 160 156 158 152 158 156 157 167 159 162 146 154 155 163 175 170 151 156 158 158 161 162 167 177 185 143 145 130 130 128 126 126 127 130 124 118 117 112 115 123 129 131 136 151 164 153 127 132 137 118 119 148 341 151 146 329 321 282 282 327
260 237 276 238 208 232 228 237 220 196 190 184 181 115 122 93 172 172 174 169 173 165 161 167 162 164 173 158 164 172 162 174 180 176 181 193 170 158 154 157 151 160 155 158 168 161 156 152 150 153 167 168 154 147 158 158 159 157 154 164 174 184 148 152 136 138 137 139 133 136 138 126 123 120 114 115 119 128 123 124 145 135 124 119 110 117 88 158 156 218 243 221 156 306 328 297 295
260 207 222 236 238 200 228 230 230 188 192 188 186 140 174 164 163 177 181 173 172 171 175 167 165 174 167 159 162 175 165 173 186 210 180 187 171 157 151 154 152 162 155 161 165 162 155 154 148 155 160 150 148 149 156 158 153 141 143 159 182 184 146 151 142 144 150 146 139 141 143 136 131 127 127 126 119 119 123 134 125 119 112 96 93 95 145 301 255 189 200 221 182 146 227 262 220
229 223 216 222 234 240 249 238 206 202 181 190 178 125 168 160 161 177 178 176 173 171 182 158 171 167 165 174 169 172 165 177 193 196 181 172 172 159 151 156 153 163 157 162 163 160 153 152 147 154 157 150 149 151 154 152 150 137 136 166 186 201 152 151 155 154 145 146 144 148 144 142 139 126 130 132 118 112 100 109 110 105 104 100 99 89 54 6 340 26 115 341 301 208 210 222 191
243 238 244 271 233 224 232 242 254 205 170 189 167 148 152 164 153 176 173 176 173 174 175 165 177 183 169 176 177 171 165 176 185 190 177 160 174 163 152 158 155 161 156 162 159 161 158 147 150 152 159 152 153 153 155 151 151 148 147 165 188 206 166 164 167 143 143 145 149 148 149 153 143 134 136 130 124 119 116 125 122 122 122 121 117 112 113 323 321 4 24 353 335 325 275 117 71
276 290 289 279 282 261 215 222 238 226 165 182 172 147 156 162 165 181 169 169 175 173 170 172 181 185 168 172 174 172 171 174 172 178 175 165 171 167 159 156 157 158 155 162 160 164 165 148 153 157 159 154 158 157 167 158 161 154 149 175 186 203 175 171 169 142 146 151 150 149 154 150 146 146 140 139 134 130 143 134 123 135 143 145 144 146 166 272 309 200 168 306 357 13 333 65 98
275 285 291 295 296 292 296 273 227 232 192 189 181 149 159 160 171 174 169 174 178 175 173 176 180 178 171 166 163 179 172 170 169 176 188 170 170 172 169 161 159 163 160 166 167 164 165 150 155 158 155 157 158 161 166 161 166 161 157 175 182 187 169 174 162 146 147 148 149 151 152 155 154 157 151 149 140 144 145 139 150 152 158 163 157 136 145 186 252 307 71 352 298 120 316 231 140
249 257 280 301 291 300 307 292 283 247 211 166 190 163 159 168 171 171 173 182 178 174 174 176 172 174 167 178 169 167 167 171 172 179 187 172 167 173 166 166 161 164 161 169 167 159 162 155 157 159 157 159 158 160 166 161 165 163 147 176 172 182 187 178 162 142 146 148 155 155 156 155 159 165 160 156 152 157 159 168 174 161 162 166 138 143 172 186 224 189 137 147 351 274 234 269 113
239 254 258 253 271 289 305 300 315 334 3 194 185 190 155 167 167 173 177 177 173 175 173 170 177 172 171 178 177 175 164 165 176 175 177 175 171 171 166 170 164 158 162 168 168 163 163 158 159 158 159 159 158 165 162 166 170 170 149 162 176 166 191 161 120 131 141 144 158 163 155 160 165 166 173 170 163 164 169 177 165 162 170 166 157 166 178 189 190 233 206 200 140 39 25 306 189
237 224 238 262 272 270 263 275 299 316 303 242 97 71 121 144 154 173 172 167 165 170 168 171 171 175 174 167 177 177 177 169 174 179 169 172 169 169 174 173 164 160 166 171 172 167 169 164 161 161 160 160 164 165 168 162 170 171 149 163 155 155 127 148 108 139 146 151 160 163 162 164 166 168 177 180 178 170 169 163 159 174 166 178 161 164 179 186 188 201 198 160 157 145 105 329 311
259 242 215 225 256 274 292 309 334 341 335 299 27 76 155 157 167 172 165 173 176 171 171 176 171 172 166 172 180 182 188 182 176 186 173 172 175 172 174 171 169 163 168 173 172 171 164 162 161 160 160 160 166 169 168 165 179 174 167 167 164 169 169 179 165 156 158 160 171 169 155 165 167 172 175 185 179 169 166 164 166 175 175 171 164 176 186 187 198 194 184 167 167 164 149 153 331
233 233 215 214 233 267 281 294 319 326 297 304 227 205 182 174 168 170 172 181 175 168 177 172 169 170 171 177 178 183 187 186 202 205 180 173 175 176 171 172 168 167 167 171 173 172 165 162 164 161 163 163 168 172 171 168 170 186 179 171 172 170 167 192 180 154 160 162 159 164 160 165 176 173 179 183 176 172 160 165 168 171 183 178 180 173 178 193 199 198 167 148 174 177 129 93 110
238 274 286 242 212 223 250 269 250 258 308 311 316 147 135 177 193 179 175 173 170 171 172 173 177 177 180 179 182 184 187 185 189 206 197 188 176 177 172 172 170 168 163 170 173 176 168 166 167 164 164 167 168 174 176 175 174 181 183 171 170 171 172 178 177 170 163 165 162 165 165 172 179 186 172 179 170 168 166 172 174 181 180 194 180 179 183 202 195 160 151 163 156 162 151 154 193
240 210 248 271 283 267 233 222 245 254 310 292 309 340 345 189 189 184 169 166 173 181 179 181 183 184 183 184 184 184 185 185 182 195 204 195 191 178 170 173 170 164 166 171 174 178 170 168 167 166 167 169 170 176 176 180 176 179 182 161 166 177 168 171 170 170 169 159 158 163 170 174 177 191 175 176 174 168 170 174 176 186 182 181 182 186 198 183 178 135 137 142 162 182 180 179 133
234 275 288 298 297 302 323 351 104 271 205 268 279 313 290 287 171 160 175 172 181 191 192 189 185 184 185 186 186 182 183 184 187 193 199 198 199 179 171 170 171 168 171 169 172 173 173 169 170 171 169 173 172 176 179 177 179 177 179 164 165 169 166 169 165 165 178 163 158 168 174 171 176 187 177 178 172 169 172 172 174 181 198 195 176 195 204 168 167 154 159 155 172 173 203 165 189
338 217 230 258 279 308 344 42 78 51 351 255 254 272 263 287 245 169 170 182 190 190 196 191 187 186 187 189 185 183 183 185 187 192 198 196 196 178 168 173 175 169 169 168 171 177 174 176 173 175 174 173 172 177 178 178 179 180 183 170 171 164 169 165 174 167 175 174 162 176 173 175 175 185 177 176 177 171 173 173 174 181 189 202 199 195 201 172 176 170 168 168 162 169 178 181 207
270 296 63 30 320 339 332 298 70 75 278 281 247 246 249 251 266 259 214 193 180 178 183 186 183 188 188 189 190 185 183 183 182 187 194 193 186 173 172 173 175 176 169 171 176 176 177 178 176 177 176 174 175 176 178 181 178 182 182 174 172 169 168 171 177 179 175 180 174 174 174 167 178 178 185 169 181 181 169 178 178 178 188 200 207 205 218 174 172 173 172 167 169 168 173 182 204
299 8 36 46 281 150 261 92 215 202 218 254 275 248 261 241 232 264 281 217 178 182 185 183 184 186 188 190 189 186 181 180 183 186 187 185 185 178 179 177 176 177 174 174 177 178 176 178 179 178 181 177 176 175 179 182 181 181 182 180 177 171 172 173 181 180 178 174 176 168 163 174 174 176 186 185 185 183 178 176 184 183 189 195 191 185 205 234 132 181 167 167 168 171 178 179 196
163 177 130 172 235 239 235 226 167 248 228 234 258 266 253 273 244 230 261 270 187 187 184 185 182 184 186 186 189 187 184 183 184 187 187 184 186 184 181 180 177 179 176 176 178 177 177 179 180 183 183 180 176 177 178 181 185 183 181 181 179 176 175 175 183 186 184 177 170 176 169 171 177 183 182 189 189 183 182 186 184 190 184 190 183 179 190 216 157 131 150 168 178 182 180 178 188
190 128 186 176 183 194 211 172 205 188 214 212 216 227 199 186 233 196 219 251 263 180 184 187 187 186 185 183 182 185 187 186 187 186 188 190 184 182 183 179 178 179 178 177 179 177 177 177 181 184 184 184 179 179 179 182 184 185 183 182 179 182 178 177 182 189 184 179 179 176 180 173 175 183 186 185 185 187 185 183 183 190 189 184 181 172 173 173 160 135 128 149 156 181 179 175 188
261 187 179 248 212 132 241 240 210 232 323 311 216 211 173 208 216 200 201 214 246 255 170 188 189 182 180 174 180 186 187 190 189 187 190 191 187 183 180 182 178 179 180 178 179 179 179 179 181 184 184 184 183 180 183 183 184 183 185 184 184 183 183 178 176 184 187 185 184 180 185 182 184 181 185 182 192 187 184 184 185 188 189 184 180 173 171 165 162 156 169 177 229 166 173 181 189
286 247 200 217 251 256 314 307 281 277 268 249 204 297 281 232 219 215 203 198 215 241 206 181 183 180 173 178 183 185 189 187 185 189 188 187 185 184 184 183 183 182 183 182 182 182 181 179 180 183 185 186 186 185 184 185 183 182 186 188 186 184 184 185 183 182 184 188 186 189 185 189 180 180 186 187 195 192 189 181 187 188 188 187 183 178 172 173 173 165 175 187 204 237 194 190 195
322 296 253 231 192 230 181 233 276 292 190 258 294 261 273 169 255 206 219 204 212 222 240 168 178 174 177 185 182 186 190 188 188 186 184 184 184 184 185 184 183 184 184 185 184 182 182 179 180 182 183 186 189 187 186 186 186 187 186 188 190 190 189 190 188 186 180 182 189 190 190 186 188 187 190 195 191 195 191 187 182 187 188 186 187 182 176 175 174 179 181 185 197 205 218 215 195
216 234 305 334 33 256 325 74 263 284 308 319 256 291 282 255 247 193 222 226 211 212 209 184 171 177 185 183 186 189 187 188 186 184 181 184 185 187 186 186 185 182 184 185 183 182 182 180 181 181 185 187 186 186 186 188 190 190 189 189 189 192 193 192 191 190 184 182 188 190 191 194 193 188 191 196 197 195 190 188 181 184 186 187 186 187 179 178 174 180 180 187 196 197 217 225 221
332 349 321 56 128 200 286 226 300 100 276 179 275 255 268 269 247 214 233 223 207 208 195 199 168 182 177 182 188 190 189 184 185 182 183 184 186 186 187 187 186 183 183 184 183 183 185 183 179 183 185 184 184 187 187 189 191 193 194 192 193 192 192 193 192 189 192 193 191 189 192 190 196 195 191 193 196 196 193 189 185 184 186 188 189 187 183 180 181 183 183 185 193 191 203 213 226
354 344 326 0 221 141 262 242 234 166 199 212 280 312 278 267 261 264 268 252 226 213 203 197 175 175 179 180 185 189 185 186 183 182 181 184 184 184 187 187 186 184 184 183 184 185 188 186 183 182 182 183 186 189 187 189 189 195 194 194 193 192 195 194 195 194 196 197 197 195 194 194 189 198 199 194 194 198 194 192 190 189 187 188 190 191 185 183 184 186 190 188 190 192 198 212 209
309 282 275 282 311 304 222 273 209 228 189 204 182 253 273 261 281 22 6 4 277 202 181 140 201 158 173 177 184 182 185 186 185 181 182 184 183 182 184 185 185 184 182 184 186 187 187 189 187 182 182 185 187 189 190 188 190 193 196 196 196 194 194 193 195 196 198 199 200 200 199 195 193 197 196 204 201 195 196 192 191 192 191 188 189 190 188 182 188 188 191 193 197 192 200 204 201